カタログに戻る

SL-8 DEB

運用中LEO
NORAD 2647·DEBRIS·🇷🇺 Russia

打ち上げ Sep 18, 1965 から Baikonur Cosmodrome

Loading…

次のパス (今後24時間)

TLE

経年Source: Space-Track

元期: Sep 12, 2026, 14:45 UTC

1 02647U 65073L   26255.61468970 -.00000020  00000-0  49082-3 0  9990
2 02647  56.0664 315.3832 0186947 182.3583 342.6933 12.43717035127506

AllMySatでSL-8 DEBをリアルタイム追跡

Download on the App Store